sat.trackr.live / text

‹ back to catalog

STARLINK-30067

NORAD 56693 · 2023-067F

PAYLOAD ACTIVE UNKNOWN

§ Identity

Operator
Country
US
Launch date
2023-05-19
Launch site
AFETR
Launch vehicle
Mass (kg)
RCS (m²)

Purposes: comms

External: N2YO · Heavens-Above · Gunter

§ Orbital elements

Epoch: 2026-09-20T16:44:52.439424Z

Period
94.27 min
Inclination
43.0031°
Eccentricity
0.0001182
Mean motion
15.27573476 rev/d
Perigee alt
482.3 km
Apogee alt
483.9 km
Semi-major
6,861.2 km
B*
1.7140e-5
RAAN
260.0083°
Arg perigee
271.4012°
Mean anomaly
88.6704°
Rev number
18,540

§ Raw data

STARLINK-300671 56693U 23067F   26263.69782916  .00000210  00000+0  17140-4 0  99932 56693  43.0031 260.0083 0001182 271.4012  88.6704 15.27573476185408

JSON: /api/v1/satellites/56693 · /tle

For live sub-satellite position, see the globe view (requires WebGL).

§ Visibility from observer

Set your observer location to see the next 7 days of passes ≥ 10°. The values pass through the URL so the page stays shareable.

No JS? Fill the form by hand. The geolocation button needs JavaScript.